Location: Izdebno
(52.6670°N, 16.2170°E)
Time: 11:38:35
(UTC+01:00)

Transit 2A - Pass Details

Date: 30 January 2023
Orbit: 591 x 964 km, 66.7° (Epoch: 21 March)

Event Time Altitude Azimuth Distance (km) Brightness Sun altitude
Rises 03:13:52 0° 317° (NW) 3,455 - -39.9°
Reaches altitude 10° 03:16:24 10° 311° (NW) 2,563 - -39.5°
Maximum altitude 03:21:59 41° 243° (WSW) 1,318 - -38.7°
Drops below altitude 10° 03:27:51 10° 175° (S) 2,686 - -37.9°
Sets 03:30:34 0° 169° (S) 3,638 - -37.5°
